When you browse on this site, cookies collect data to enhance your experience and personalize the content and advertising you see.
Visit our Privacy Policy to learn more. By continuing to use the site, you agree to this use of cookies and data.
  • Em Portugal
  • Lista de países
  • Para 7 dias
  • Temperatura da água
  • Mapas de satélite
  • Mapa do tempo
  • Widgets de tempo
  • user-avatar
    Iniciar Sessão

    Previsão horária em Igls

    Hoje, 20 Maio, Segunda-feira

    Tempo Temperatura Precipitação Vento Pressão Humidade
    00:00 +10°C° 0.7 mm 1 m/s 674 mmHg 93%
    01:00 +10°C° 0.7 mm 1 m/s 674 mmHg 94%
    02:00 +10°C° 1.7 mm 1 m/s 674 mmHg 95%
    03:00 +10°C° 1.7 mm 1 m/s 674 mmHg 95%
    04:00 +10°C° 1.7 mm 1 m/s 674 mmHg 96%
    05:00 +10°C° 2.4 mm 1 m/s 674 mmHg 96%
    06:00 +10°C° 2.4 mm 1 m/s 674 mmHg 96%
    07:00 +10°C° 2.4 mm 1 m/s 674 mmHg 96%
    08:00 +10°C° 1.5 mm 1 m/s 674 mmHg 95%
    09:00 +10°C° 1.5 mm 1 m/s 674 mmHg 94%
    10:00 +11°C° 1.5 mm 1 m/s 674 mmHg 93%
    11:00 +11°C° 1.5 mm 1 m/s 674 mmHg 93%
    12:00 +11°C° 1.5 mm 1 m/s 675 mmHg 93%
    13:00 +11°C° 1.5 mm 1 m/s 675 mmHg 93%
    14:00 +11°C° 0.9 mm 1 m/s 675 mmHg 93%
    15:00 +11°C° 0.9 mm 1 m/s 675 mmHg 93%
    16:00 +12°C° 0.9 mm 1 m/s 675 mmHg 93%
    17:00 +11°C° 1.9 mm 1 m/s 675 mmHg 94%
    18:00 +11°C° 1.9 mm 1 m/s 675 mmHg 94%
    19:00 +10°C° 1.9 mm 1 m/s 675 mmHg 95%
    20:00 +9°C° 3.4 mm 2 m/s 676 mmHg 95%
    21:00 +8°C° 3.4 mm 2 m/s 676 mmHg 95%
    22:00 +8°C° 3.4 mm 2 m/s 676 mmHg 95%
    23:00 +8°C° 2.9 mm 2 m/s 676 mmHg 95%

    Amanhã, 21 Maio, Terça-feira

    Tempo Temperatura Precipitação Vento Pressão Humidade
    00:00 +8°C° 2.9 mm 2 m/s 677 mmHg 95%
    01:00 +8°C° 2.9 mm 2 m/s 677 mmHg 95%
    02:00 +8°C° 1.2 mm 2 m/s 677 mmHg 95%
    03:00 +8°C° 1.2 mm 2 m/s 677 mmHg 95%
    04:00 +8°C° 1.2 mm 2 m/s 677 mmHg 94%
    05:00 +9°C° 0.7 mm 1 m/s 677 mmHg 94%
    06:00 +10°C° 0.7 mm 1 m/s 678 mmHg 94%
    07:00 +10°C° 0.7 mm 1 m/s 678 mmHg 94%
    08:00 +10°C° 0.6 mm 1 m/s 679 mmHg 93%
    09:00 +11°C° 0.6 mm 1 m/s 679 mmHg 91%
    10:00 +12°C° 0.6 mm 1 m/s 679 mmHg 90%
    11:00 +12°C° 0.6 mm 1 m/s 680 mmHg 89%
    12:00 +12°C° 0.6 mm 1 m/s 680 mmHg 89%
    13:00 +12°C° 0.6 mm 1 m/s 680 mmHg 88%
    14:00 +12°C° 0.3 mm 1 m/s 680 mmHg 86%
    15:00 +13°C° 0.3 mm 1 m/s 681 mmHg 83%
    16:00 +13°C° 0.3 mm 2 m/s 681 mmHg 81%
    17:00 +12°C° 0.2 mm 1 m/s 681 mmHg 84%
    18:00 +12°C° 0.2 mm 1 m/s 681 mmHg 88%
    19:00 +11°C° 0.2 mm 1 m/s 682 mmHg 91%
    20:00 +10°C° 0.2 mm 1 m/s 682 mmHg 92%
    21:00 +9°C° 0.2 mm 1 m/s 682 mmHg 93%
    22:00 +9°C° 0.2 mm 1 m/s 682 mmHg 94%
    23:00 +8°C° 0.2 mm 1 m/s 682 mmHg 93%

    Depois de amanhã, 22 Maio, Quarta-feira

    Tempo Temperatura Precipitação Vento Pressão Humidade
    00:00 +8°C° 0.2 mm 1 m/s 682 mmHg 92%
    01:00 +8°C° 0.2 mm 1 m/s 683 mmHg 91%
    02:00 +8°C° 0.3 mm 1 m/s 683 mmHg 90%
    03:00 +9°C° 0.3 mm 1 m/s 683 mmHg 90%
    04:00 +9°C° 0.3 mm 1 m/s 683 mmHg 90%
    05:00 +10°C° 0.1 mm 1 m/s 683 mmHg 89%
    06:00 +10°C° 0.1 mm 1 m/s 683 mmHg 88%
    07:00 +11°C° 0.1 mm 1 m/s 683 mmHg 87%
    08:00 +11°C° 0.3 mm 1 m/s 684 mmHg 85%
    09:00 +12°C° 0.3 mm 1 m/s 684 mmHg 83%
    10:00 +13°C° 0.3 mm 1 m/s 684 mmHg 81%
    11:00 +14°C° 0.1 mm 2 m/s 684 mmHg 78%
    12:00 +15°C° 0.1 mm 2 m/s 685 mmHg 74%
    13:00 +16°C° 0.1 mm 2 m/s 685 mmHg 71%
    14:00 +16°C° 0.3 mm 2 m/s 685 mmHg 73%
    15:00 +15°C° 0.3 mm 2 m/s 685 mmHg 75%
    16:00 +15°C° 0.3 mm 2 m/s 685 mmHg 78%
    17:00 +14°C° 0.2 mm 2 m/s 685 mmHg 83%
    18:00 +13°C° 0.2 mm 2 m/s 685 mmHg 88%
    19:00 +12°C° 0.2 mm 1 m/s 685 mmHg 94%
    20:00 +11°C° 0.2 mm 1 m/s 685 mmHg 95%
    21:00 +11°C° 0.2 mm 1 m/s 685 mmHg 97%
    22:00 +10°C° 0.2 mm 1 m/s 686 mmHg 98%
    23:00 +10°C° 0.1 mm 1 m/s 686 mmHg 98%

    23 Maio, Quinta-feira

    Tempo Temperatura Precipitação Vento Pressão Humidade
    00:00 +10°C° 0.1 mm 1 m/s 686 mmHg 97%
    01:00 +9°C° 0.1 mm 1 m/s 686 mmHg 97%
    02:00 +9°C° 0 mm 1 m/s 685 mmHg 96%
    03:00 +9°C° 0 mm 1 m/s 685 mmHg 96%
    04:00 +8°C° 0 mm 0 m/s 685 mmHg 95%
    05:00 +10°C° 0 mm 1 m/s 685 mmHg 92%
    06:00 +10°C° 0 mm 1 m/s 686 mmHg 90%
    07:00 +11°C° 0 mm 1 m/s 686 mmHg 87%
    08:00 +12°C° 0.1 mm 1 m/s 686 mmHg 85%
    09:00 +13°C° 0.1 mm 1 m/s 686 mmHg 82%
    10:00 +13°C° 0.1 mm 1 m/s 686 mmHg 80%
    11:00 +14°C° 0 mm 1 m/s 686 mmHg 77%
    12:00 +15°C° 0 mm 2 m/s 686 mmHg 74%
    13:00 +15°C° 0 mm 2 m/s 685 mmHg 71%
    14:00 +15°C° 0 mm 2 m/s 685 mmHg 71%
    15:00 +15°C° 0 mm 2 m/s 685 mmHg 71%
    16:00 +15°C° 0 mm 2 m/s 685 mmHg 71%
    17:00 +14°C° 0 mm 2 m/s 685 mmHg 75%
    18:00 +14°C° 0 mm 1 m/s 685 mmHg 79%
    19:00 +13°C° 0 mm 1 m/s 685 mmHg 84%
    20:00 +11°C° 0 mm 1 m/s 685 mmHg 88%
    21:00 +10°C° 0 mm 1 m/s 685 mmHg 91%
    22:00 +8°C° 0 mm 1 m/s 685 mmHg 95%
    23:00 +8°C° 0 mm 1 m/s 685 mmHg 94%

    24 Maio, Sexta-feira

    Tempo Temperatura Precipitação Vento Pressão Humidade
    00:00 +8°C° 0 mm 1 m/s 685 mmHg 93%
    01:00 +7°C° 0 mm 1 m/s 684 mmHg 93%
    02:00 +7°C° 0 mm 1 m/s 684 mmHg 90%
    03:00 +7°C° 0 mm 1 m/s 684 mmHg 88%
    04:00 +7°C° 0 mm 1 m/s 684 mmHg 86%
    05:00 +9°C° 0 mm 1 m/s 684 mmHg 79%
    06:00 +11°C° 0 mm 1 m/s 684 mmHg 72%
    07:00 +12°C° 0 mm 0 m/s 684 mmHg 65%
    08:00 +14°C° 0 mm 0 m/s 685 mmHg 59%
    09:00 +16°C° 0 mm 0 m/s 685 mmHg 53%
    10:00 +20°C° 0 mm 1 m/s 685 mmHg 46%
    11:00 +21°C° 0 mm 1 m/s 684 mmHg 45%
    12:00 +22°C° 0 mm 1 m/s 684 mmHg 44%
    13:00 +22°C° 0 mm 1 m/s 683 mmHg 43%
    14:00 +21°C° 0 mm 1 m/s 683 mmHg 47%
    15:00 +20°C° 0 mm 2 m/s 682 mmHg 50%
    16:00 +19°C° 0 mm 2 m/s 682 mmHg 54%
    17:00 +18°C° 0.2 mm 2 m/s 681 mmHg 64%
    18:00 +16°C° 0.2 mm 2 m/s 681 mmHg 73%
    19:00 +15°C° 0.2 mm 1 m/s 681 mmHg 83%
    20:00 +14°C° 0.5 mm 1 m/s 681 mmHg 87%
    21:00 +13°C° 0.5 mm 1 m/s 680 mmHg 92%
    22:00 +12°C° 0.5 mm 1 m/s 680 mmHg 96%
    23:00 +12°C° 1.2 mm 1 m/s 680 mmHg 96%

    25 Maio, Sábado

    Tempo Temperatura Precipitação Vento Pressão Humidade
    00:00 +12°C° 1.2 mm 1 m/s 680 mmHg 97%
    01:00 +12°C° 1.2 mm 1 m/s 679 mmHg 97%
    02:00 +11°C° 2.5 mm 1 m/s 679 mmHg 97%
    03:00 +11°C° 2.5 mm 1 m/s 679 mmHg 98%
    04:00 +10°C° 2.5 mm 2 m/s 679 mmHg 98%
    05:00 +9°C° 2.7 mm 2 m/s 679 mmHg 98%
    06:00 +9°C° 2.7 mm 2 m/s 680 mmHg 98%
    07:00 +9°C° 2.7 mm 2 m/s 680 mmHg 97%
    08:00 +9°C° 0.9 mm 2 m/s 681 mmHg 95%
    09:00 +9°C° 0.9 mm 2 m/s 681 mmHg 94%
    10:00 +10°C° 0.9 mm 2 m/s 681 mmHg 92%
    11:00 +10°C° 0.4 mm 2 m/s 681 mmHg 88%
    12:00 +12°C° 0.4 mm 2 m/s 682 mmHg 84%
    13:00 +13°C° 0.4 mm 2 m/s 682 mmHg 80%
    14:00 +13°C° 0.2 mm 2 m/s 682 mmHg 81%
    15:00 +13°C° 0.2 mm 2 m/s 682 mmHg 82%
    16:00 +13°C° 0.2 mm 2 m/s 682 mmHg 83%
    17:00 +12°C° 0.2 mm 2 m/s 682 mmHg 85%
    18:00 +12°C° 0.2 mm 2 m/s 682 mmHg 88%
    19:00 +11°C° 0.2 mm 1 m/s 683 mmHg 90%
    20:00 +10°C° 0 mm 1 m/s 683 mmHg 92%
    21:00 +10°C° 0 mm 1 m/s 683 mmHg 93%
    22:00 +9°C° 0 mm 1 m/s 684 mmHg 95%
    23:00 +8°C° 0 mm 1 m/s 684 mmHg 95%
    Mostrar mais